JAL687 RJCC-RJAA

Flight info

Callsign JAL687
Flight time N/A
Altitude 35000
Route REZOT2 DALBI Y120 RURUD Y125 JUGEM Y30 SWAMP SWAMPG
Aircraft MD11/M-V/N

Departure

Time N/A
Airport New Chitose Airport (RJCC)

Arrival

Time 2026-05-06 14:14
Airport Narita International Airport (RJAA)
Time Latitude Longitude Altitude Speed Heading
2026-05-06 13:17 39.07016 140.85179 34983 ft 433 kts 171°
2026-05-06 13:18 39.04076 140.85986 34988 ft 442 kts 171°
2026-05-06 13:18 38.97955 140.87653 34995 ft 451 kts 171°
2026-05-06 13:19 38.91848 140.89290 34995 ft 447 kts 171°
2026-05-06 13:19 38.85732 140.90883 34996 ft 448 kts 172°
2026-05-06 13:20 38.79631 140.92543 34996 ft 449 kts 169°
2026-05-06 13:20 38.73557 140.94457 34996 ft 449 kts 170°
2026-05-06 13:21 38.67455 140.96095 34996 ft 448 kts 172°
2026-05-06 13:21 38.61335 140.97662 34996 ft 448 kts 171°
2026-05-06 13:22 38.55264 140.99560 34996 ft 449 kts 169°
2026-05-06 13:22 38.49202 141.01534 34996 ft 449 kts 170°
2026-05-06 13:23 38.43153 141.03274 34996 ft 448 kts 171°
2026-05-06 13:23 38.37042 141.04964 34996 ft 448 kts 171°
2026-05-06 13:24 38.30944 141.06632 34996 ft 448 kts 171°
2026-05-06 13:24 38.24836 141.08289 34996 ft 448 kts 171°
2026-05-06 13:25 38.18728 141.09931 34996 ft 448 kts 171°
2026-05-06 13:25 38.12630 141.11549 34996 ft 448 kts 171°
2026-05-06 13:26 38.06511 141.13140 34996 ft 448 kts 172°
2026-05-06 13:26 38.00398 141.14680 34996 ft 448 kts 172°
2026-05-06 13:27 37.94308 141.16389 34987 ft 447 kts 174°
2026-05-06 13:27 37.91247 141.16500 34985 ft 441 kts 188°
2026-05-06 13:27 37.88258 141.15677 34988 ft 435 kts 202°
2026-05-06 13:27 37.85551 141.14015 34999 ft 431 kts 213°
2026-05-06 13:28 37.82895 141.12254 34991 ft 434 kts 205°
2026-05-06 13:28 37.77020 141.10308 34998 ft 437 kts 198°
2026-05-06 13:29 37.71220 141.08196 34998 ft 436 kts 200°
2026-05-06 13:29 37.65439 141.05893 34997 ft 436 kts 201°
2026-05-06 13:30 37.59669 141.03548 34997 ft 435 kts 201°
2026-05-06 13:30 37.53899 141.01172 34997 ft 435 kts 201°
2026-05-06 13:31 37.48155 140.98761 34997 ft 435 kts 201°
2026-05-06 13:31 37.42342 140.96580 34997 ft 436 kts 199°
2026-05-06 13:32 37.36492 140.94533 34997 ft 436 kts 199°
2026-05-06 13:32 37.30684 140.92318 34997 ft 436 kts 200°
2026-05-06 13:33 37.24897 140.90036 34997 ft 436 kts 200°
2026-05-06 13:33 37.19115 140.87733 34997 ft 436 kts 201°
2026-05-06 13:34 37.13347 140.85410 34997 ft 435 kts 201°
2026-05-06 13:34 37.07641 140.83070 34997 ft 435 kts 201°
2026-05-06 13:35 37.01829 140.80823 34997 ft 437 kts 198°
2026-05-06 13:35 36.95972 140.78829 34997 ft 437 kts 198°
2026-05-06 13:36 36.90136 140.76674 34997 ft 436 kts 200°
2026-05-06 13:36 36.84338 140.74425 34997 ft 436 kts 200°
2026-05-06 13:37 36.78546 140.72153 34997 ft 436 kts 200°
2026-05-06 13:37 36.72765 140.69866 34997 ft 436 kts 201°
2026-05-06 13:38 36.67022 140.67565 34997 ft 435 kts 201°
2026-05-06 13:38 36.61260 140.65232 34997 ft 436 kts 200°
2026-05-06 13:39 36.55408 140.63139 34997 ft 436 kts 199°
2026-05-06 13:39 36.49621 140.61011 34997 ft 436 kts 200°
2026-05-06 13:40 36.43851 140.58728 34997 ft 435 kts 201°
2026-05-06 13:40 36.37908 140.57195 34985 ft 443 kts 183°
2026-05-06 13:41 36.31750 140.58132 34997 ft 447 kts 174°
2026-05-06 13:41 36.25861 140.60697 34860 ft 457 kts 151°
2026-05-06 13:41 36.23380 140.63131 34368 ft 451 kts 138°
2026-05-06 13:42 36.21403 140.66140 33274 ft 454 kts 125°
2026-05-06 13:42 36.19914 140.69649 31875 ft 463 kts 117°
2026-05-06 13:42 36.18252 140.72993 30540 ft 464 kts 129°
2026-05-06 13:42 36.16013 140.75864 29237 ft 463 kts 140°
2026-05-06 13:43 36.13646 140.78653 27869 ft 466 kts 136°
2026-05-06 13:43 36.12105 140.80499 26900 ft 466 kts 141°
2026-05-06 13:43 36.08477 140.83371 24982 ft 462 kts 156°
2026-05-06 13:43 36.05618 140.85116 23918 ft 455 kts 154°
2026-05-06 13:44 36.02915 140.87086 22884 ft 448 kts 151°
2026-05-06 13:44 36.00310 140.89151 21828 ft 441 kts 151°
2026-05-06 13:44 35.97605 140.90818 20772 ft 431 kts 162°
2026-05-06 13:44 35.94763 140.91923 19778 ft 423 kts 166°
2026-05-06 13:45 35.92017 140.93148 18779 ft 419 kts 161°
2026-05-06 13:45 35.86571 140.95121 16799 ft 399 kts 180°
2026-05-06 13:45 35.83856 140.94809 15870 ft 387 kts 193°
2026-05-06 13:46 35.81196 140.94349 14928 ft 385 kts 188°
2026-05-06 13:46 35.78528 140.94245 14003 ft 381 kts 184°
2026-05-06 13:46 35.75933 140.93838 13045 ft 371 kts 198°
2026-05-06 13:46 35.73663 140.92558 12253 ft 359 kts 214°
2026-05-06 13:47 35.71532 140.90969 11946 ft 358 kts 212°
2026-05-06 13:47 35.69319 140.89595 11361 ft 353 kts 208°
2026-05-06 13:47 35.67102 140.88317 10354 ft 350 kts 210°
2026-05-06 13:47 35.65094 140.86681 9256 ft 343 kts 224°
2026-05-06 13:48 35.63718 140.84359 8288 ft 333 kts 245°
2026-05-06 13:48 35.63188 140.81638 7654 ft 325 kts 267°
2026-05-06 13:48 35.63587 140.78903 7468 ft 329 kts 289°
2026-05-06 13:48 35.64781 140.76510 7146 ft 327 kts 307°
2026-05-06 13:49 35.66369 140.74547 6554 ft 323 kts 314°
2026-05-06 13:49 35.68057 140.72706 6354 ft 329 kts 317°
2026-05-06 13:49 35.69815 140.70899 6228 ft 331 kts 318°
2026-05-06 13:49 35.71601 140.69125 6135 ft 329 kts 320°
2026-05-06 13:50 35.73412 140.67397 6016 ft 328 kts 321°
2026-05-06 13:50 35.75238 140.65729 5689 ft 324 kts 322°
2026-05-06 13:50 35.77079 140.64136 5226 ft 325 kts 324°
2026-05-06 13:50 35.78975 140.62604 5104 ft 327 kts 327°
2026-05-06 13:51 35.80940 140.61176 5040 ft 328 kts 330°
2026-05-06 13:51 35.82929 140.59797 4999 ft 327 kts 327°
2026-05-06 13:51 35.84657 140.57974 4962 ft 327 kts 315°
2026-05-06 13:51 35.86129 140.55883 4717 ft 321 kts 310°
2026-05-06 13:52 35.87558 140.53732 4251 ft 326 kts 310°
2026-05-06 13:52 35.89009 140.51569 4123 ft 329 kts 310°
2026-05-06 13:52 35.90479 140.49403 4058 ft 330 kts 310°
2026-05-06 13:52 35.91937 140.47226 4005 ft 329 kts 309°
2026-05-06 13:53 35.93363 140.45040 4003 ft 330 kts 308°
2026-05-06 13:53 35.94597 140.42666 3834 ft 327 kts 297°
2026-05-06 13:53 35.95306 140.40013 3371 ft 326 kts 284°
2026-05-06 13:53 35.95370 140.37236 3062 ft 326 kts 262°
2026-05-06 13:54 35.94556 140.34630 3004 ft 328 kts 239°
2026-05-06 13:54 35.92997 140.32576 2999 ft 329 kts 218°
2026-05-06 13:54 35.91004 140.31265 2893 ft 322 kts 202°
2026-05-06 13:54 35.88835 140.30677 2388 ft 322 kts 185°
2026-05-06 13:55 35.86599 140.30944 2266 ft 319 kts 167°
2026-05-06 13:55 35.85221 140.31574 2403 ft 323 kts 156°
2026-05-06 13:55 35.83196 140.32968 2921 ft 336 kts 149°
2026-05-06 13:55 35.80463 140.34809 2199 ft 341 kts 155°
2026-05-06 13:56 35.78407 140.36151 1202 ft 324 kts 150°
2026-05-06 13:56 35.77112 140.37062 879 ft 307 kts 150°
2026-05-06 13:56 35.74935 140.38569 1582 ft 240 kts 152°
2026-05-06 13:56 35.73421 140.38984 1628 ft 211 kts 176°
2026-05-06 13:57 35.72475 140.38962 1853 ft 192 kts 179°
2026-05-06 13:57 35.71250 140.39530 2203 ft 197 kts 147°
2026-05-06 13:57 35.70268 140.40661 3038 ft 192 kts 137°
2026-05-06 13:57 35.69202 140.41658 3238 ft 192 kts 142°
2026-05-06 13:58 35.68180 140.42690 3228 ft 189 kts 141°
2026-05-06 13:58 35.67140 140.43708 3449 ft 196 kts 141°
2026-05-06 13:58 35.66037 140.44766 3874 ft 201 kts 142°
2026-05-06 13:58 35.64946 140.45834 3989 ft 200 kts 141°
2026-05-06 13:59 35.63860 140.46882 3989 ft 197 kts 141°
2026-05-06 13:59 35.62784 140.47922 3992 ft 197 kts 141°
2026-05-06 13:59 35.61706 140.48963 3993 ft 197 kts 142°
2026-05-06 13:59 35.60464 140.49639 3954 ft 199 kts 170°
2026-05-06 14:00 35.59129 140.49323 3967 ft 198 kts 206°
2026-05-06 14:00 35.58077 140.48260 4017 ft 195 kts 224°
2026-05-06 14:00 35.57066 140.47139 4014 ft 195 kts 223°
2026-05-06 14:00 35.56074 140.46019 4011 ft 195 kts 223°
2026-05-06 14:01 35.55060 140.44889 4009 ft 195 kts 223°
2026-05-06 14:01 35.54057 140.43767 4006 ft 195 kts 223°
2026-05-06 14:01 35.53103 140.42579 3985 ft 195 kts 235°
2026-05-06 14:01 35.52727 140.41010 3969 ft 194 kts 269°
2026-05-06 14:02 35.53159 140.39477 3993 ft 191 kts 301°
2026-05-06 14:02 35.53945 140.38168 4018 ft 190 kts 306°
2026-05-06 14:02 35.54709 140.36839 4015 ft 190 kts 307°
2026-05-06 14:02 35.55483 140.35519 4013 ft 190 kts 306°
2026-05-06 14:03 35.56255 140.34202 4010 ft 190 kts 306°
2026-05-06 14:03 35.57025 140.32884 4008 ft 190 kts 306°
2026-05-06 14:03 35.57797 140.31564 4005 ft 190 kts 306°
2026-05-06 14:03 35.58569 140.30244 4003 ft 190 kts 306°
2026-05-06 14:04 35.59328 140.28945 4000 ft 190 kts 306°
2026-05-06 14:04 35.60109 140.27608 3999 ft 190 kts 306°
2026-05-06 14:04 35.60874 140.26299 3998 ft 191 kts 306°
2026-05-06 14:04 35.61673 140.24933 3872 ft 201 kts 306°
2026-05-06 14:05 35.62552 140.23436 4028 ft 238 kts 306°
2026-05-06 14:05 35.63554 140.21727 4029 ft 252 kts 306°
2026-05-06 14:05 35.64589 140.19965 4019 ft 255 kts 306°
2026-05-06 14:05 35.65625 140.18198 4015 ft 254 kts 306°
2026-05-06 14:06 35.66657 140.16439 4012 ft 254 kts 306°
2026-05-06 14:06 35.67692 140.14675 4010 ft 254 kts 306°
2026-05-06 14:06 35.68724 140.12915 4007 ft 254 kts 306°
2026-05-06 14:06 35.69755 140.11154 4005 ft 254 kts 306°
2026-05-06 14:07 35.70788 140.09391 4002 ft 254 kts 306°
2026-05-06 14:07 35.71950 140.07764 3974 ft 253 kts 321°
2026-05-06 14:07 35.73561 140.06933 3975 ft 253 kts 349°
2026-05-06 14:07 35.75300 140.07137 3979 ft 254 kts 17°
2026-05-06 14:08 35.76835 140.08211 4007 ft 255 kts 33°
2026-05-06 14:08 35.77795 140.09046 4006 ft 255 kts 34°
2026-05-06 14:08 35.79741 140.10715 4002 ft 255 kts 34°
2026-05-06 14:08 35.81197 140.11969 3999 ft 255 kts 34°
2026-05-06 14:09 35.82650 140.13221 3999 ft 255 kts 34°
2026-05-06 14:09 35.84100 140.14469 3999 ft 255 kts 34°
2026-05-06 14:09 35.85553 140.15722 3991 ft 253 kts 34°
2026-05-06 14:09 35.86982 140.16950 3741 ft 250 kts 34°
2026-05-06 14:10 35.88406 140.18157 3547 ft 253 kts 34°
2026-05-06 14:10 35.89847 140.19416 3470 ft 253 kts 39°
2026-05-06 14:10 35.90875 140.21144 3129 ft 251 kts 66°
2026-05-06 14:10 35.91086 140.23262 3006 ft 253 kts 95°
2026-05-06 14:11 35.90529 140.25322 3036 ft 253 kts 112°
2026-05-06 14:11 35.89987 140.27389 3024 ft 253 kts 105°
2026-05-06 14:11 35.89466 140.29428 3137 ft 236 kts 115°
2026-05-06 14:11 35.88371 140.30770 2992 ft 219 kts 145°
2026-05-06 14:12 35.86948 140.31423 2458 ft 219 kts 163°
2026-05-06 14:12 35.85483 140.31803 2054 ft 210 kts 168°
2026-05-06 14:12 35.84129 140.32357 1607 ft 199 kts 159°
2026-05-06 14:12 35.82940 140.32919 1348 ft 173 kts 159°
2026-05-06 14:13 35.81904 140.33557 1045 ft 155 kts 152°
2026-05-06 14:13 35.80941 140.34220 837 ft 169 kts 150°
2026-05-06 14:13 35.79860 140.35026 927 ft 184 kts 149°
2026-05-06 14:13 35.78778 140.35830 586 ft 179 kts 148°
2026-05-06 14:14 35.77737 140.36597 247 ft 167 kts 149°
2026-05-06 14:14 35.76839 140.37237 149 ft 114 kts 148°
2026-05-06 14:14 35.76406 140.37557 149 ft 59 kts 149°
2026-05-06 14:14 35.76121 140.37771 149 ft 19 kts 143°
2026-05-06 14:15 35.76070 140.37849 149 ft 10 kts 117°
2026-05-06 14:15 35.76044 140.37913 149 ft 6 kts 115°
2026-05-06 14:15 35.76026 140.37974 149 ft 8 kts 109°
2026-05-06 14:15 35.76019 140.38032 149 ft 6 kts 85°
2026-05-06 14:16 35.76033 140.38089 149 ft 13 kts 65°
2026-05-06 14:16 35.76082 140.38198 149 ft 12 kts 59°
2026-05-06 14:16 35.76120 140.38277 149 ft 9 kts 60°
2026-05-06 14:16 35.76142 140.38326 149 ft 4 kts 61°
2026-05-06 14:17 35.76152 140.38347 149 ft 3 kts 59°
2026-05-06 14:17 35.76166 140.38378 149 ft 6 kts 59°
2026-05-06 14:17 35.76172 140.38390 149 ft 3 kts 59°
2026-05-06 14:17 35.76181 140.38407 149 ft 0 kts 58°